Time,TemperatureF,DewpointF,PressureIn,WindDirection,WindDirectionDegrees,WindSpeedMPH,WindSpeedGustMPH,Humidity,HourlyPrecipIn,Conditions,Clouds,dailyrainin,SolarRadiationWatts/m^2,SoftwareType,DateUTC
2013-09-17 00:04:00,39.0,38.0,-100.00,East,95,0.0,3.0,96,0.00,,,0.00,0.000000,,2013-09-17 05:04:00,
2013-09-17 00:52:00,37.0,36.0,-100.00,ESE,102,0.0,2.0,97,0.00,,,0.00,0.000000,,2013-09-17 05:52:00,
2013-09-17 01:02:00,37.0,36.0,-100.00,ESE,102,0.0,2.0,97,0.00,,,0.00,0.000000,,2013-09-17 06:02:00,
2013-09-17 01:42:00,36.0,36.0,-100.00,ESE,107,0.0,3.0,99,0.00,,,0.00,0.000000,,2013-09-17 06:42:00,
2013-09-17 01:52:00,36.0,36.0,-100.00,ESE,107,0.0,3.0,99,0.00,,,0.00,0.000000,,2013-09-17 06:52:00,
2013-09-17 02:02:00,36.0,36.0,-100.00,ESE,107,0.0,3.0,99,0.00,,,0.00,0.000000,,2013-09-17 07:02:00,
2013-09-17 08:42:00,46.0,45.0,-100.00,SE,134,2.0,5.0,97,-99.99,,,0.00,77.000000,,2013-09-17 13:42:00,
2013-09-17 08:52:00,46.0,45.0,-100.00,SE,134,2.0,5.0,97,-99.99,,,0.00,77.000000,,2013-09-17 13:52:00,
2013-09-17 09:02:00,46.0,45.0,-100.00,SE,134,2.0,5.0,97,-99.99,,,0.00,77.000000,,2013-09-17 14:02:00,
2013-09-17 09:42:00,55.0,48.0,-100.00,SSE,157,3.0,9.0,78,0.00,,,0.00,240.000000,,2013-09-17 14:42:00,
2013-09-17 09:52:00,55.0,48.0,-100.00,SSE,157,3.0,9.0,78,0.00,,,0.00,240.000000,,2013-09-17 14:52:00,
2013-09-17 10:02:00,55.0,48.0,-100.00,SSE,157,3.0,9.0,78,0.00,,,0.00,240.000000,,2013-09-17 15:02:00,
2013-09-17 10:44:00,59.0,48.0,-100.00,South,187,6.0,13.0,67,0.00,,,0.00,400.000000,,2013-09-17 15:44:00,
2013-09-17 10:53:00,59.0,48.0,-100.00,South,187,6.0,13.0,67,0.00,,,0.00,400.000000,,2013-09-17 15:53:00,
2013-09-17 11:03:00,59.0,48.0,-100.00,South,187,6.0,13.0,67,0.00,,,0.00,400.000000,,2013-09-17 16:03:00,
2013-09-17 11:42:00,65.0,50.0,-100.00,SSE,161,4.0,13.0,59,0.00,,,0.00,565.000000,,2013-09-17 16:42:00,
2013-09-17 11:54:00,65.0,50.0,-100.00,SSE,161,4.0,13.0,59,0.00,,,0.00,565.000000,,2013-09-17 16:54:00,
2013-09-17 12:03:00,65.0,50.0,-100.00,SSE,161,4.0,13.0,59,0.00,,,0.00,565.000000,,2013-09-17 17:03:00,
2013-09-17 12:43:00,67.0,49.0,-100.00,SE,143,5.0,14.0,53,0.00,,,0.00,656.000000,,2013-09-17 17:43:00,
2013-09-17 12:53:00,67.0,49.0,-100.00,SE,143,5.0,14.0,53,0.00,,,0.00,656.000000,,2013-09-17 17:53:00,
2013-09-17 13:02:00,67.0,49.0,-100.00,SE,143,5.0,14.0,53,0.00,,,0.00,656.000000,,2013-09-17 18:02:00,
2013-09-17 13:42:00,68.0,50.0,-100.00,South,176,5.0,17.0,52,0.00,,,0.00,705.000000,,2013-09-17 18:42:00,
2013-09-17 13:52:00,68.0,50.0,-100.00,South,176,5.0,17.0,52,0.00,,,0.00,705.000000,,2013-09-17 18:52:00,
2013-09-17 14:02:00,68.0,50.0,-100.00,South,176,5.0,17.0,52,0.00,,,0.00,705.000000,,2013-09-17 19:02:00,
2013-09-17 14:42:00,71.0,51.0,-100.00,South,180,8.0,21.0,50,0.00,,,0.00,549.000000,,2013-09-17 19:42:00,
2013-09-17 14:52:00,71.0,51.0,-100.00,South,180,8.0,21.0,50,0.00,,,0.00,549.000000,,2013-09-17 19:52:00,
2013-09-17 15:02:00,71.0,51.0,-100.00,South,180,8.0,21.0,50,0.00,,,0.00,549.000000,,2013-09-17 20:02:00,
2013-09-17 15:42:00,71.0,51.0,-100.00,South,180,7.0,18.0,50,0.00,,,0.00,470.000000,,2013-09-17 20:42:00,
2013-09-17 15:52:00,71.0,51.0,-100.00,South,180,7.0,18.0,50,0.00,,,0.00,470.000000,,2013-09-17 20:52:00,
2013-09-17 16:02:00,71.0,51.0,-100.00,South,180,7.0,18.0,50,0.00,,,0.00,470.000000,,2013-09-17 21:02:00,
2013-09-17 16:44:00,67.0,51.0,-100.00,SSE,159,6.0,18.0,56,0.00,,,0.00,422.000000,,2013-09-17 21:44:00,
2013-09-17 16:54:00,67.0,51.0,-100.00,SSE,159,6.0,18.0,56,0.00,,,0.00,422.000000,,2013-09-17 21:54:00,
2013-09-17 17:04:00,67.0,51.0,-100.00,SSE,159,6.0,18.0,56,0.00,,,0.00,422.000000,,2013-09-17 22:04:00,
2013-09-17 17:44:00,67.0,51.0,-100.00,SSE,168,4.0,14.0,56,0.00,,,0.00,217.000000,,2013-09-17 22:44:00,
2013-09-17 17:53:00,67.0,51.0,-100.00,SSE,168,4.0,14.0,56,0.00,,,0.00,217.000000,,2013-09-17 22:53:00,
2013-09-17 18:03:00,67.0,51.0,-100.00,SSE,168,4.0,14.0,56,0.00,,,0.00,217.000000,,2013-09-17 23:03:00,
2013-09-17 18:42:00,65.0,50.0,-100.00,SSE,164,4.0,16.0,58,0.00,,,0.00,99.000000,,2013-09-17 23:42:00,
2013-09-17 18:52:00,65.0,50.0,-100.00,SSE,164,4.0,16.0,58,0.00,,,0.00,99.000000,,2013-09-17 23:52:00,
2013-09-17 19:02:00,65.0,50.0,-100.00,SSE,164,4.0,16.0,58,0.00,,,0.00,99.000000,,2013-09-18 00:02:00,
2013-09-17 19:42:00,62.0,52.0,-100.00,South,177,6.0,16.0,69,0.00,,,0.00,21.000000,,2013-09-18 00:42:00,
2013-09-17 19:52:00,62.0,52.0,-100.00,South,177,6.0,16.0,69,0.00,,,0.00,21.000000,,2013-09-18 00:52:00,
2013-09-17 20:01:00,62.0,52.0,-100.00,South,177,6.0,16.0,69,0.00,,,0.00,21.000000,,2013-09-18 01:01:00,
2013-09-17 20:42:00,58.0,55.0,-100.00,SSE,156,4.0,16.0,89,0.00,,,0.00,0.000000,,2013-09-18 01:42:00,
2013-09-17 20:53:00,58.0,55.0,-100.00,SSE,156,4.0,16.0,89,0.00,,,0.00,0.000000,,2013-09-18 01:53:00,
2013-09-17 21:03:00,58.0,55.0,-100.00,SSE,156,4.0,16.0,89,0.00,,,0.00,0.000000,,2013-09-18 02:03:00,
2013-09-17 21:43:00,57.0,55.0,-100.00,SE,141,4.0,8.0,92,0.00,,,0.00,0.000000,,2013-09-18 02:43:00,
2013-09-17 21:52:00,57.0,55.0,-100.00,SE,141,4.0,8.0,92,0.00,,,0.00,0.000000,,2013-09-18 02:52:00,
2013-09-17 22:02:00,57.0,55.0,-100.00,SE,141,4.0,8.0,92,0.00,,,0.00,0.000000,,2013-09-18 03:02:00,
2013-09-17 22:44:00,57.0,54.0,-100.00,SE,142,4.0,9.0,90,0.00,,,0.00,0.000000,,2013-09-18 03:44:00,
2013-09-17 22:55:00,57.0,54.0,-100.00,SE,142,4.0,9.0,90,0.00,,,0.00,0.000000,,2013-09-18 03:55:00,
2013-09-17 23:04:00,57.0,54.0,-100.00,SE,142,4.0,9.0,90,0.00,,,0.00,0.000000,,2013-09-18 04:04:00,
2013-09-17 23:44:00,58.0,55.0,-100.00,South,170,2.0,9.0,89,0.00,,,0.00,0.000000,,2013-09-18 04:44:00,
2013-09-17 23:54:00,58.0,55.0,-100.00,South,170,2.0,9.0,89,0.00,,,0.00,0.000000,,2013-09-18 04:54:00,